Weather History for Lynchburg, VA

Change the Weather History Date:

Saturday, August 10, 2013

  Actual Average Record
Temperature  
Mean Temperature 81 °F 75 °F  
Max Temperature 91 °F 86 °F 99 °F (1900)
Min Temperature 70 °F 64 °F 53 °F (2002)
Degree Days  
Heating Degree Days 0 0  
Month to date heating degree days 0 0  
Since 1 June heating degree days 1 15  
Since 1 July heating degree days 0 1  
Cooling Degree Days 16 10  
Month to date cooling degree days 110 100  
Year to date cooling degree days 877 714  
Since 1 June cooling degree days 742 632  
Growing Degree Days 30 (Base 50)    
Moisture  
Dew Point 71 °F    
Average Humidity 75    
Maximum Humidity 100    
Minimum Humidity 50    
Precipitation  
Precipitation 0.62 in 0.10 in 2.06 in (1984)
Month to date precipitation 0.99 1.12  
Year to date precipitation 31.16 25.79  
Snow  
Snow 0.00 in - - ()
Month to date snowfall 0.0  
Since 1 June snowfall 0.0  
Since 1 July snowfall 0.0  
Snow Depth 0.00 in    
Sea Level Pressure  
Sea Level Pressure 30.06 in    
Wind  
Wind Speed 4 mph (SSE)    
Max Wind Speed 12 mph    
Max Gust Speed 16 mph    
Visibility 9 miles    
Events Rain , Thunderstorm    
T = Trace of Precipitation, MM = Missing Value Source: NWS Daily Summary

Daily Weather History Graph

Daily Weather History Graph

Search for Another Location

Airport:

Trip Planner

Search our weather history database for the weather conditions in past years. The results will help you decide how hot, cold, wet, or windy it might be!

Date:

Astronomy

Aug. 10, 2013 Rise Set
Actual Time 6:29 AM EDT 8:14 PM EDT
Civil Twilight 6:00 AM EDT 8:42 PM EDT
Nautical Twilight 5:26 AM EDT 9:16 PM EDT
Astronomical Twilight 4:50 AM EDT 9:52 PM EDT
Moon 10:07 AM EDT (8/10) 10:02 PM EDT (8/10)
Length of Visible Light 14h 41m
Length of Day
13h 45m
Waxing Crescent, 14% of the Moon is Illuminated
Aug 10
Waxing Crescent
Aug 14
First Quarter
Aug 20
Full
Aug 28
Last Quarter
Sep 5
New

Hourly Weather History & Observations

Time (EDT) Temp. Heat Index Dew Point Humidity Pressure Visibility Wind Dir Wind Speed Gust Speed Precip Events Conditions
12:54 AM 73.0 °F - 70.0 °F 90% 30.02 in 10.0 mi SW 3.5 mph - N/A   Clear
1:54 AM 73.0 °F - 70.0 °F 90% 30.01 in 10.0 mi SW 3.5 mph - N/A   Clear
2:54 AM 71.1 °F - 70.0 °F 96% 30.02 in 10.0 mi SSW 4.6 mph - N/A   Clear
3:54 AM 72.0 °F - 70.0 °F 93% 30.02 in 10.0 mi SW 3.5 mph - N/A   Clear
4:54 AM 72.0 °F - 71.1 °F 97% 30.02 in 10.0 mi Calm Calm - N/A   Clear
5:54 AM 71.1 °F - 70.0 °F 96% 30.03 in 8.0 mi Calm Calm - N/A   Clear
6:54 AM 70.0 °F - 69.1 °F 97% 30.04 in 6.0 mi South 3.5 mph - N/A   Clear
7:54 AM 73.9 °F - 71.1 °F 91% 30.06 in 10.0 mi Calm Calm - N/A   Clear
8:54 AM 75.9 °F - 71.1 °F 85% 30.07 in 10.0 mi Calm Calm - N/A   Overcast
9:54 AM 80.1 °F 83.8 °F 72.0 °F 76% 30.07 in 10.0 mi SW 4.6 mph - N/A   Mostly Cloudy
10:54 AM 82.0 °F 86.3 °F 71.1 °F 69% 30.08 in 10.0 mi WSW 4.6 mph - N/A   Overcast
11:54 AM 84.9 °F 90.1 °F 71.1 °F 63% 30.07 in 10.0 mi Variable 4.6 mph - N/A   Partly Cloudy
12:54 PM 87.1 °F 92.0 °F 70.0 °F 57% 30.05 in 10.0 mi West 6.9 mph - N/A   Mostly Cloudy
1:54 PM 87.1 °F 92.8 °F 71.1 °F 59% 30.04 in 10.0 mi WSW 5.8 mph - N/A   Mostly Cloudy
2:54 PM 88.0 °F 92.1 °F 69.1 °F 53% 30.03 in 10.0 mi Variable 6.9 mph - N/A   Mostly Cloudy
3:54 PM 90.0 °F 95.4 °F 70.0 °F 52% 30.02 in 10.0 mi WSW 6.9 mph - N/A   Partly Cloudy
4:54 PM 90.0 °F 93.6 °F 68.0 °F 48% 30.02 in 10.0 mi Variable 4.6 mph - N/A   Scattered Clouds
5:54 PM 88.0 °F 92.1 °F 69.1 °F 53% 30.02 in 10.0 mi Variable 3.5 mph - N/A   Partly Cloudy
6:54 PM 84.0 °F 91.2 °F 73.9 °F 72% 30.04 in 10.0 mi East 8.1 mph - N/A   Overcast
7:54 PM 80.1 °F 84.2 °F 73.0 °F 79% 30.04 in 10.0 mi ESE 5.8 mph - N/A   Partly Cloudy
8:08 PM 78.8 °F - 73.4 °F 83% 30.08 in 4.0 mi Calm Calm - 0.02 in Rain , Thunderstorm Thunderstorms and Rain
8:14 PM 77.0 °F - 73.4 °F 89% 30.08 in 1.8 mi NNE 5.8 mph - 0.07 in Rain , Thunderstorm Heavy Thunderstorms and Rain
8:21 PM 75.2 °F - 73.4 °F 94% 30.07 in 1.0 mi East 6.9 mph - 0.29 in Rain , Thunderstorm Heavy Thunderstorms and Rain
8:25 PM 75.2 °F - 73.4 °F 94% 30.08 in 1.5 mi ESE 8.1 mph - 0.42 in Rain , Thunderstorm Thunderstorms and Rain
8:30 PM 75.2 °F - 73.4 °F 94% 30.08 in 3.0 mi SSE 8.1 mph - 0.44 in Rain , Thunderstorm Light Thunderstorms and Rain
8:54 PM 75.9 °F - 73.0 °F 91% 30.06 in 10.0 mi ENE 6.9 mph - 0.44 in Thunderstorm Thunderstorm
8:57 PM 75.2 °F - 73.4 °F 94% 30.09 in 10.0 mi East 4.6 mph - N/A   Overcast
9:11 PM 75.2 °F - 73.4 °F 94% 30.09 in 10.0 mi Variable 3.5 mph - 0.00 in Rain , Thunderstorm Rain
9:26 PM 75.2 °F - 73.4 °F 94% 30.10 in 10.0 mi SSE 8.1 mph - 0.00 in Rain Rain
9:28 PM 75.2 °F - 73.4 °F 94% 30.10 in 10.0 mi SSE 8.1 mph - 0.00 in Rain , Thunderstorm Thunderstorms and Rain
9:54 PM 73.9 °F - 72.0 °F 93% 30.08 in 4.0 mi ESE 6.9 mph - 0.08 in Rain Rain
10:14 PM 73.4 °F - 71.6 °F 94% 30.12 in 10.0 mi ESE 3.5 mph - 0.02 in   Overcast
10:54 PM 73.0 °F - 72.0 °F 96% 30.09 in 10.0 mi Calm Calm - 0.10 in   Overcast
11:20 PM 73.4 °F - 71.6 °F 94% 30.13 in 9.0 mi WNW 3.5 mph - N/A   Mostly Cloudy
11:29 PM 73.4 °F - 71.6 °F 94% 30.13 in 10.0 mi Calm Calm - N/A   Mostly Cloudy
11:54 PM 73.0 °F - 72.0 °F 96% 30.10 in 10.0 mi ENE 5.8 mph - N/A   Overcast